Home > Weather > Laredo > Past weeks

Flag for USA Past Weather in Laredo, Texas, USA — Yesterday and Last 2 Weeks

Now
78 °F

Clear.


Feels Like: 81 °F
Forecast: 77 / 99 °F
Wind: 13 mph from Southeast

Location: Laredo International Airport

Current Time: Aug 24, 2016 at 5:34:27 AM

Latest Report: Aug 24, 2016 at 4:56 AM


Visibility: 10 mi

Pressure: 30.05 "Hg

Humidity: 84%

Dew Point: 73 °F

Location of LaredoLocation

Past Weather in Laredo — Graph

°F

Laredo Temperature Yesterday

Maximum temperature yesterday: 97 °F (at 2:56 PM)
Minimum temperature yesterday: 77 °F (at 5:56 AM)
Average temperature yesterday: 87 °F

High & Low Weather Summary for the Past Weeks

 TemperatureHumidityPressure
High108 °F (Aug 11, 5:56 PM)97% (Aug 15, 4:56 AM)30.10 "Hg (Aug 15, 4:56 AM)
Low74 °F (Aug 21, 7:56 AM)21% (Aug 12, 5:56 PM)29.67 "Hg (Aug 12, 5:56 PM)
Average86 °F69%29.91 "Hg
* Reported Aug 9 3:56 AM — Aug 24 3:56 AM, Laredo, Weather by CustomWeather, © 2016

Note: Actual official high and low records may vary slightly from our data, if they occured in-between our weather recording intervals... More about our weather records

Advertising

Laredo Weather History for the Previous 24 Hours

Scroll right to see more
 ConditionsComfort  
Time TempWeatherWind HumidityBarometerVisibility
3:56 AM
Wed, Aug 24
79 °FClear.15 mph82%30.05 "Hg10 mi
2:56 AM79 °FClear.13 mph82%30.06 "Hg10 mi
1:56 AM81 °FClear.14 mph77%30.07 "Hg10 mi
12:56 AM82 °FClear.17 mph74%30.07 "Hg10 mi
11:56 PM
Tue, Aug 23
84 °FClear.14 mph67%30.06 "Hg10 mi
10:56 PM85 °FClear.13 mph57%30.06 "Hg10 mi
9:56 PM87 °FClear.14 mph48%30.03 "Hg10 mi
8:56 PM88 °FSunny.12 mph46%30.01 "Hg10 mi
7:56 PM92 °FSunny.16 mph41%30.00 "Hg10 mi
6:56 PM95 °FSunny.17 mph41%29.99 "Hg10 mi
5:56 PM97 °FSunny.20 mph39%30.00 "Hg10 mi
4:56 PM97 °FSunny.20 mph37%30.00 "Hg10 mi
3:56 PM97 °FSunny.18 mph35%30.01 "Hg10 mi
2:56 PM97 °FSunny.15 mph36%30.03 "Hg10 mi
1:56 PM94 °FSunny.18 mph44%30.06 "Hg10 mi
12:56 PM92 °FSunny.22 mph47%30.07 "Hg10 mi
11:56 AM90 °FSunny.23 mph52%30.09 "Hg10 mi
10:56 AM87 °FSunny.18 mph59%30.10 "Hg10 mi
9:56 AM84 °FSunny.18 mph67%30.10 "Hg10 mi
8:56 AM81 °FSunny.13 mph77%30.09 "Hg10 mi
7:56 AM77 °FClear.14 mph90%30.08 "Hg10 mi
6:56 AM77 °FClear.12 mph90%30.06 "Hg10 mi
5:56 AM77 °FClear.10 mph90%30.05 "Hg10 mi
Weather by CustomWeather, © 2016

See weather overviewHow to use our weather pages